Location: Alphen
(52.1351°N, 4.6549°E)
Time: 01:37:16
(UTC+00:00)

Cosmos 841 Rocket - Pass Details

Date: 27 January 2021
Orbit: 746 x 773 km, 74.0° (Epoch: 27 February)

Event Time Altitude Azimuth Distance (km) Brightness Sun altitude
Exits shadow 05:57:00 20° 271° (W) 1,674 4.6 -14.0°
Maximum altitude 05:59:18 28° 311° (NW) 1,389 4.4 -13.6°
Drops below altitude 10° 06:03:45 10° 10° (N) 2,290 5.9 -13.0°
Sets 06:06:28 0° 22° (NNE) 3,224 6.8 -12.6°
